Printer-friendly version
Follow the MPC on Twitter Follow the MPC on Facebook The MPC blog
Minor Planet Center

MPEC 2010-K37 : 2010 KO10

The following Minor Planet Electronic Circular may be linked-to from your own Web pages, but must not otherwise be redistributed electronically.

A form allowing access to any MPEC is at the bottom of this page.


Read MPEC 2010-K36 Read MPEC 2010-K38


M.P.E.C. 2010-K37                                Issued 2010 May 21, 20:47 UT

     The Minor Planet Electronic Circulars contain information on unusual
         minor planets and routine data on comets.  They are published
   on behalf of Commission 20 of the International Astronomical Union by the
          Minor Planet Center, Smithsonian Astrophysical Observatory,
                          Cambridge, MA 02138, U.S.A.

             Prepared using the Tamkin Foundation Computer Network

                              MPC@CFA.HARVARD.EDU
       URL http://www.minorplanetcenter.org/iau/mpc.html  ISSN 1523-6714

                                   2010 KO10

Observations:
     K10K10O* C2010 05 20.32287 14 43 32.80 +10 49 41.0          20.2 V EK037703
     K10K10O  C2010 05 20.33038 14 43 33.85 +10 49 39.3          19.7 V EK037703
     K10K10O  C2010 05 20.33782 14 43 34.89 +10 49 36.5          19.8 V EK037703
     K10K10O  C2010 05 20.34649 14 43 36.22 +10 49 33.3          19.7 V EK037703
     K10K10O  C2010 05 20.41479 14 43 48.43 +10 49 07.2          20.0 V EK037703
     K10K10O  C2010 05 20.41571 14 43 48.57 +10 49 06.6          19.8 V EK037703
     K10K10O  C2010 05 20.41663 14 43 48.79 +10 49 06.3          19.8 V EK037703
     K10K10O  C2010 05 20.41757 14 43 49.04 +10 49 05.8          19.9 V EK037703
     K10K10O KC2010 05 20.85189 14 47 07.62 +10 46 45.0          19.0 R EK037B04
     K10K10O KC2010 05 20.86899 14 47 12.84 +10 46 44.9          19.2 R EK037B04
     K10K10O KC2010 05 20.88083 14 47 16.45 +10 46 44.1          18.8 R EK037B04
     K10K10O  C2010 05 21.23303 14 50 25.79 +10 47 23.9          18.6 R EK037854
     K10K10O KC2010 05 21.23599 14 50 33.33 +10 46 18.9          18.9 C EK037G56
     K10K10O  C2010 05 21.23879 14 50 28.19 +10 47 22.7          18.6 R EK037854
     K10K10O KC2010 05 21.24043 14 50 35.26 +10 46 17.7                 EK037G56
     K10K10O  C2010 05 21.24458 14 50 30.62 +10 47 21.8          18.6 R EK037854
     K10K10O KC2010 05 21.24488 14 50 37.24 +10 46 17.8                 EK037G56
     K10K10O KC2010 05 21.25029 14 50 39.56 +10 46 16.8          18.9 C EK037G56
     K10K10O  C2010 05 21.25283 14 50 31.43 +10 47 02.0          18.2 R EK037H01
     K10K10O  C2010 05 21.25730 14 50 35.84 +10 47 27.6          18.5 R EK037926
     K10K10O  C2010 05 21.25895 14 50 36.51 +10 47 27.4          18.4 R EK037926
     K10K10O  C2010 05 21.26060 14 50 37.19 +10 47 26.8          18.5 R EK037926
     K10K10O  C2010 05 21.26074 14 50 34.74 +10 46 59.3          18.2 R EK037H01
     K10K10O  C2010 05 21.27128 14 50 39.18 +10 46 55.3          18.2 R EK037H01
     K10K10O  C2010 05 21.27943 14 50 42.67 +10 46 52.0          17.7 R EK037H01
     K10K10O  C2010 05 21.32682 14 51 04.07 +10 46 26.3          18.0 R EK037H01
     K10K10O  C2010 05 21.33492 14 51 07.97 +10 46 20.7          18.0 R EK037H01
     K10K10O  C2010 05 21.34531 14 51 13.09 +10 46 13.5          18.1 R EK037H01
     K10K10O  C2010 05 21.35241 14 51 16.68 +10 46 08.1          18.1 R EK037H01

Observer details:
703 Catalina Sky Survey.  Observer A. R. Gibbs.  Measurers J. D. Ahern,
    E. C. Beshore, A. Boattini, G. J. Garradd, A. R. Gibbs, A. D. Grauer,
    R. E. Hill, R. A. Kowalski, S. M. Larson, R. H. McNaught.  0.68-m Schmidt
    + CCD.
854 Sabino Canyon Observatory, Tucson.  Observer J. E. McGaha.  0.36-m f/10.0
    Schmidt-Cassegrain + CCD.
926 Tenagra II Observatory.  Observers P. R. Holvorcem, M. Schwartz.  Measurer
    P. R. Holvorcem.  0.81-m f/7 Ritchey-Chretien + CCD.
B04 OAVdA, Saint-Barthelemy.  Observer A. Carbognani.  0.81-m f/7.9 reflector
    + CCD.
G56 Walnut Creek.  Observer G. McKeegan.  0.28-m Schmidt-Cassegrain + CCD
    + f/6.2 focal reducer.
H01 Magdalena Ridge Observatory, Socorro.  Observers W. H. Ryan, E. V. Ryan.
    Measurer W. H. Ryan.  2.4-m f/8.9 reflector + CCD.

Orbital elements:
2010 KO10                                                Earth MOID = 0.0000 AU
Epoch 2010 July 23.0 TT = JDT 2455400.5                 MPC
M  10.07011              (2000.0)            P               Q
n   0.36095520     Peri.  222.45458     +0.24335861     +0.96183968
a   1.9535919      Node    61.98557     -0.84752731     +0.27357351
e   0.5289034      Incl.    8.14408     -0.47167154     +0.00468748
P   2.73           H   26.8           G   0.15           U   6
Residuals in seconds of arc
100520 703  0.7+  0.6+    100520 B04  0.4+  0.1+    100521 926  0.2+  0.1-
100520 703  0.6+  0.8+    100521 854  0.0   0.1-    100521 926  0.2+  0.2-
100520 703  0.0   0.0     100521 G56  0.4-  0.3+    100521 H01  0.1-  0.2+
100520 703  0.4+  0.7-    100521 854  0.7+  0.3-    100521 H01  0.2-  0.0
100520 703  0.2-  0.1-    100521 G56  0.7-  0.4-    100521 H01  0.1-  0.1+
100520 703  1.0-  0.3-    100521 854  1.5+  0.0     100521 H01  0.1+  0.1+
100520 703  0.6-  0.1-    100521 G56  0.3-  0.2+    100521 H01  0.1+  0.0
100520 703  0.1+  0.2-    100521 G56  1.1-  0.0     100521 H01  0.1+  0.2+
100520 B04  0.1+  0.1+    100521 H01  0.2-  0.3+    100521 H01  0.1+  0.2+
100520 B04  0.1+  0.2+    100521 926  0.4+  0.3-

Ephemeris:
2010 KO10                a,e,i = 1.95, 0.53, 8                   q = 0.9203
Date    TT    R. A. (2000) Decl.     Delta      r     Elong.  Phase     V
2010 05 14    14 34.61   +10 38.9    0.0624   1.064   148.6    29.7    22.2
2010 05 15    14 35.02   +10 42.3    0.0556   1.058   147.9    30.5    22.0
2010 05 16    14 35.58   +10 45.3    0.0487   1.052   147.4    31.2    21.7
2010 05 17    14 36.38   +10 47.9    0.0419   1.047   146.8    32.0    21.4
2010 05 18    14 37.54   +10 50.1    0.0351   1.041   146.2    32.7    21.0
2010 05 19    14 39.32   +10 51.6    0.0283   1.035   145.8    33.3    20.5
2010 05 20    14 42.29   +10 52.5    0.0215   1.030   145.5    33.9    19.9
2010 05 21    14 48.08   +10 52.0    0.0147   1.024   145.5    34.0    19.1

2010 05 22.0  15 03.83   +10 46.4    0.00799  1.019   146.6    33.2    17.7
2010 05 22.1  15 07.03   +10 44.8    0.00731  1.018   146.8    33.0    17.5
2010 05 22.2  15 10.60   +10 42.8    0.00664  1.018   147.1    32.7    17.3
2010 05 22.3  15 15.53   +10 39.9    0.00598  1.017   147.5    32.3    17.1
2010 05 22.4  15 21.76   +10 35.7    0.00531  1.017   147.9    31.9    16.8
2010 05 22.5  15 28.01   +10 31.1    0.00463  1.016   148.3    31.5    16.5
2010 05 22.6  15 39.09   +10 21.7    0.00401  1.016   148.9    31.0    16.2
2010 05 22.7  15 53.12   +10 07.8    0.00334  1.015   149.4    30.5    15.8
2010 05 22.8  16 12.99   +09 44.2    0.00270  1.015   149.6    30.4    15.3
2010 05 22.9  16 44.20   +08 58.4    0.00213  1.014   148.4    31.5    14.8
2010 05 23.0  17 40.15   +07 11.8    0.00159  1.014   142.6    37.3    14.3
2010 05 23.1  19 15.05   +03 14.6    0.00123  1.013   126.3    53.6    14.2
2010 05 23.2  21 25.29   -02 57.7    0.00119  1.013    98.9    81.0    15.0
2010 05 23.3  23 10.66   -07 21.2    0.00150  1.012    76.1   103.8    16.5
2010 05 23.4  00 12.39   -09 14.5    0.00200  1.012    63.3   116.6    17.9
2010 05 23.5  00 48.03   -10 02.0    0.00259  1.011    56.3   123.6    19.0
2010 05 23.6  01 10.28   -10 24.4    0.00321  1.011    52.1   127.8    19.9
2010 05 23.7  01 25.22   -10 36.1    0.00386  1.010    49.4   130.4    20.5
2010 05 23.8  01 35.88   -10 42.9    0.00451  1.009    47.6   132.3    21.0
2010 05 23.9  01 43.84   -10 47.1    0.00517  1.009    46.2   133.6    21.5
2010 05 24.0  01 49.99   -10 49.7    0.00584  1.008    45.3   134.5    21.8

Sonia Keys                   (C) Copyright 2010 MPC           M.P.E.C. 2010-K37

Read MPEC 2010-K36 Read MPEC 2010-K38


MPEC number:

Enter an MPEC number in one of the following forms:

  • 1997-B01 (the full form)
  • J97B01 (the packed version of the full form)
  • B01 (the abbreviated form)

Valid HTML 4.01!